Time,TemperatureF,DewpointF,PressureIn,WindDirection,WindDirectionDegrees,WindSpeedMPH,WindSpeedGustMPH,Humidity,HourlyPrecipIn,Conditions,Clouds,dailyrainin,SoftwareType,DateUTC
2013-03-23 00:02:00,31.0,24.0,-100.00,North,10,3.0,5.0,73,0.00,,,-99.99,,2013-03-23 05:02:00,
2013-03-23 00:12:00,31.0,23.0,-100.00,NNE,15,4.0,4.0,73,0.00,,,-99.99,,2013-03-23 05:12:00,
2013-03-23 00:22:00,31.0,23.0,-100.00,North,10,3.0,4.0,72,0.00,,,-99.99,,2013-03-23 05:22:00,
2013-03-23 00:32:00,31.0,23.0,-100.00,NNE,15,4.0,6.0,73,0.00,,,-99.99,,2013-03-23 05:32:00,
2013-03-23 00:42:00,31.0,23.0,-100.00,NNE,15,4.0,6.0,73,0.00,,,-99.99,,2013-03-23 05:42:00,
2013-03-23 00:52:00,31.0,23.0,-100.00,NNE,25,5.0,6.0,73,0.00,,,-99.99,,2013-03-23 05:52:00,
2013-03-23 01:02:00,31.0,23.0,-100.00,NNE,25,5.0,6.0,73,0.00,,,-99.99,,2013-03-23 06:02:00,
2013-03-23 01:12:00,31.0,23.0,-100.00,NNE,15,5.0,6.0,73,0.00,,,-99.99,,2013-03-23 06:12:00,
2013-03-23 01:22:00,31.0,23.0,-100.00,NNE,30,6.0,7.0,73,0.00,,,-99.99,,2013-03-23 06:22:00,
2013-03-23 01:32:00,30.0,24.0,-100.00,NE,40,6.0,7.0,75,0.00,,,-99.99,,2013-03-23 06:32:00,
2013-03-23 01:42:00,30.0,24.0,-100.00,NE,40,6.0,7.0,75,0.00,,,-99.99,,2013-03-23 06:42:00,
2013-03-23 01:52:00,30.0,24.0,-100.00,NE,45,5.0,6.0,76,0.00,,,-99.99,,2013-03-23 06:52:00,
2013-03-23 02:02:00,30.0,24.0,-100.00,NE,40,5.0,6.0,77,0.00,,,-99.99,,2013-03-23 07:02:00,
2013-03-23 02:12:00,30.0,24.0,-100.00,NE,45,4.0,6.0,79,0.00,,,-99.99,,2013-03-23 07:12:00,
2013-03-23 02:22:00,29.0,24.0,-100.00,NE,50,4.0,6.0,80,0.00,,,-99.99,,2013-03-23 07:22:00,
2013-03-23 02:32:00,28.0,24.0,-100.00,ENE,60,5.0,6.0,83,0.00,,,-99.99,,2013-03-23 07:32:00,
2013-03-23 02:42:00,28.0,24.0,-100.00,ENE,60,5.0,6.0,83,0.00,,,-99.99,,2013-03-23 07:42:00,
2013-03-23 02:52:00,28.0,24.0,-100.00,ENE,65,3.0,4.0,84,0.00,,,-99.99,,2013-03-23 07:52:00,
2013-03-23 03:02:00,28.0,24.0,-100.00,ENE,65,3.0,4.0,84,0.00,,,-99.99,,2013-03-23 08:02:00,
2013-03-23 03:12:00,27.0,24.0,-100.00,ENE,75,2.0,3.0,85,0.00,,,-99.99,,2013-03-23 08:12:00,
2013-03-23 03:22:00,27.0,23.0,-100.00,ENE,60,2.0,3.0,85,0.00,,,-99.99,,2013-03-23 08:22:00,
2013-03-23 03:32:00,26.0,23.0,-100.00,North,5,2.0,3.0,87,0.00,,,-99.99,,2013-03-23 08:32:00,
2013-03-23 03:42:00,26.0,23.0,-100.00,North,5,2.0,3.0,87,0.00,,,-99.99,,2013-03-23 08:42:00,
2013-03-23 03:52:00,27.0,24.0,-100.00,NW,325,1.0,2.0,88,0.00,,,-99.99,,2013-03-23 08:52:00,
2013-03-23 04:02:00,27.0,24.0,-100.00,NW,325,1.0,2.0,88,0.00,,,-99.99,,2013-03-23 09:02:00,
2013-03-23 04:12:00,28.0,25.0,-100.00,NW,315,1.0,1.0,88,0.00,,,-99.99,,2013-03-23 09:12:00,
2013-03-23 04:22:00,28.0,25.0,-100.00,North,0,3.0,3.0,88,0.00,,,-99.99,,2013-03-23 09:22:00,
2013-03-23 04:33:00,28.0,26.0,-100.00,North,355,4.0,4.0,89,0.00,,,-99.99,,2013-03-23 09:33:00,
2013-03-23 04:42:00,28.0,26.0,-100.00,North,355,4.0,4.0,89,0.00,,,-99.99,,2013-03-23 09:42:00,
2013-03-23 04:53:00,28.0,26.0,-100.00,NNW,345,4.0,6.0,89,0.00,,,-99.99,,2013-03-23 09:53:00,
2013-03-23 05:03:00,28.0,26.0,-100.00,NNW,345,4.0,6.0,89,0.00,,,-99.99,,2013-03-23 10:03:00,
2013-03-23 05:12:00,28.0,26.0,-100.00,North,355,4.0,6.0,90,0.00,,,-99.99,,2013-03-23 10:12:00,
2013-03-23 05:23:00,28.0,26.0,-100.00,North,5,4.0,6.0,90,0.00,,,-99.99,,2013-03-23 10:23:00,
2013-03-23 05:33:00,28.0,25.0,-100.00,North,0,2.0,4.0,91,0.00,,,-99.99,,2013-03-23 10:33:00,
2013-03-23 05:42:00,28.0,25.0,-100.00,North,0,2.0,4.0,91,0.00,,,-99.99,,2013-03-23 10:42:00,
2013-03-23 05:52:00,27.0,26.0,-100.00,North,10,1.0,2.0,91,0.00,,,-99.99,,2013-03-23 10:52:00,
2013-03-23 06:03:00,27.0,26.0,-100.00,North,10,1.0,2.0,91,0.00,,,-99.99,,2013-03-23 11:03:00,
2013-03-23 06:12:00,27.0,25.0,-100.00,NNE,25,1.0,3.0,92,0.00,,,-99.99,,2013-03-23 11:12:00,
2013-03-23 06:22:00,27.0,25.0,-100.00,NNE,25,2.0,2.0,92,0.00,,,-99.99,,2013-03-23 11:22:00,
2013-03-23 06:32:00,26.0,24.0,-100.00,North,0,4.0,5.0,93,0.00,,,-99.99,,2013-03-23 11:32:00,
2013-03-23 06:42:00,26.0,24.0,-100.00,North,0,4.0,5.0,93,0.00,,,-99.99,,2013-03-23 11:42:00,
2013-03-23 06:51:00,26.0,25.0,-100.00,North,5,3.0,5.0,94,0.00,,,-99.99,,2013-03-23 11:51:00,
2013-03-23 07:02:00,26.0,25.0,-100.00,North,5,3.0,5.0,94,0.00,,,-99.99,,2013-03-23 12:02:00,
2013-03-23 07:12:00,26.0,25.0,-100.00,North,10,2.0,4.0,94,0.00,,,-99.99,,2013-03-23 12:12:00,
2013-03-23 07:22:00,26.0,25.0,-100.00,NNE,15,1.0,3.0,94,0.00,,,-99.99,,2013-03-23 12:22:00,
2013-03-23 07:33:00,25.0,24.0,-100.00,North,10,1.0,2.0,94,0.00,,,-99.99,,2013-03-23 12:33:00,
2013-03-23 07:42:00,25.0,24.0,-100.00,North,10,1.0,2.0,94,0.00,,,-99.99,,2013-03-23 12:42:00,
2013-03-23 07:52:00,26.0,25.0,-100.00,North,355,2.0,3.0,94,0.00,,,-99.99,,2013-03-23 12:52:00,
2013-03-23 08:02:00,26.0,25.0,-100.00,North,355,2.0,3.0,94,0.00,,,-99.99,,2013-03-23 13:02:00,
2013-03-23 08:12:00,26.0,25.0,-100.00,North,0,1.0,3.0,94,0.00,,,-99.99,,2013-03-23 13:12:00,
2013-03-23 08:22:00,27.0,26.0,-100.00,North,10,3.0,3.0,94,0.00,,,-99.99,,2013-03-23 13:22:00,
2013-03-23 08:32:00,29.0,26.0,-100.00,North,10,5.0,6.0,91,0.00,,,-99.99,,2013-03-23 13:32:00,
2013-03-23 08:42:00,29.0,26.0,-100.00,North,10,5.0,6.0,91,0.00,,,-99.99,,2013-03-23 13:42:00,
2013-03-23 08:52:00,29.0,26.0,-100.00,NNE,15,5.0,6.0,88,0.00,,,-99.99,,2013-03-23 13:52:00,
2013-03-23 09:03:00,29.0,26.0,-100.00,NNE,15,5.0,6.0,88,0.00,,,-99.99,,2013-03-23 14:03:00,
2013-03-23 09:12:00,29.0,26.0,-100.00,NNE,25,4.0,6.0,87,0.00,,,-99.99,,2013-03-23 14:12:00,
2013-03-23 09:22:00,30.0,26.0,-100.00,NNE,20,6.0,6.0,86,0.00,,,-99.99,,2013-03-23 14:22:00,
2013-03-23 09:32:00,31.0,26.0,-100.00,NNE,20,5.0,7.0,83,0.00,,,-99.99,,2013-03-23 14:32:00,
2013-03-23 09:42:00,31.0,26.0,-100.00,NNE,20,5.0,7.0,83,0.00,,,-99.99,,2013-03-23 14:42:00,
2013-03-23 09:52:00,31.0,25.0,-100.00,NNE,25,5.0,6.0,78,0.00,,,-99.99,,2013-03-23 14:52:00,
2013-03-23 10:12:00,32.0,26.0,-100.00,NNE,30,4.0,5.0,77,0.00,,,-99.99,,2013-03-23 15:12:00,
2013-03-23 10:22:00,32.0,25.0,-100.00,NNE,30,5.0,6.0,76,0.00,,,-99.99,,2013-03-23 15:22:00,
2013-03-23 10:33:00,32.0,25.0,-100.00,NNE,15,5.0,7.0,74,0.00,,,-99.99,,2013-03-23 15:33:00,
2013-03-23 10:43:00,32.0,25.0,-100.00,NNE,15,5.0,7.0,74,0.00,,,-99.99,,2013-03-23 15:43:00,
2013-03-23 10:52:00,33.0,25.0,-100.00,North,10,4.0,6.0,72,0.00,,,-99.99,,2013-03-23 15:52:00,
2013-03-23 11:03:00,33.0,25.0,-100.00,North,10,4.0,6.0,72,0.00,,,-99.99,,2013-03-23 16:03:00,
2013-03-23 11:12:00,33.0,25.0,-100.00,NNE,25,5.0,7.0,70,0.00,,,-99.99,,2013-03-23 16:12:00,
2013-03-23 11:23:00,33.0,24.0,-100.00,NNE,25,5.0,7.0,69,0.00,,,-99.99,,2013-03-23 16:23:00,
2013-03-23 11:32:00,34.0,24.0,-100.00,North,10,6.0,7.0,66,0.00,,,-99.99,,2013-03-23 16:32:00,
2013-03-23 11:42:00,34.0,24.0,-100.00,North,10,6.0,7.0,66,0.00,,,-99.99,,2013-03-23 16:42:00,
2013-03-23 11:53:00,35.0,23.0,-100.00,NE,40,6.0,8.0,61,0.00,,,-99.99,,2013-03-23 16:53:00,
2013-03-23 12:02:00,35.0,23.0,-100.00,NE,40,6.0,8.0,61,0.00,,,-99.99,,2013-03-23 17:02:00,
2013-03-23 12:12:00,35.0,23.0,-100.00,North,5,6.0,7.0,60,0.00,,,-99.99,,2013-03-23 17:12:00,
2013-03-23 12:22:00,36.0,22.0,-100.00,NNE,30,6.0,9.0,58,0.00,,,-99.99,,2013-03-23 17:22:00,
2013-03-23 12:32:00,37.0,22.0,-100.00,NNE,15,3.0,9.0,54,0.00,,,-99.99,,2013-03-23 17:32:00,
2013-03-23 12:42:00,37.0,22.0,-100.00,NNE,15,3.0,9.0,54,0.00,,,-99.99,,2013-03-23 17:42:00,
2013-03-23 12:52:00,36.0,20.0,-100.00,NE,35,6.0,8.0,52,0.00,,,-99.99,,2013-03-23 17:52:00,
2013-03-23 13:03:00,37.0,21.0,-100.00,NNE,15,5.0,7.0,51,0.00,,,-99.99,,2013-03-23 18:03:00,
2013-03-23 13:12:00,38.0,21.0,-100.00,North,350,4.0,7.0,49,0.00,,,-99.99,,2013-03-23 18:12:00,
2013-03-23 13:22:00,38.0,20.0,-100.00,North,350,4.0,7.0,48,0.00,,,-99.99,,2013-03-23 18:22:00,
2013-03-23 13:32:00,37.0,19.0,-100.00,NE,55,4.0,7.0,47,0.00,,,-99.99,,2013-03-23 18:32:00,
2013-03-23 13:42:00,37.0,19.0,-100.00,NE,55,4.0,7.0,47,0.00,,,-99.99,,2013-03-23 18:42:00,
2013-03-23 13:52:00,37.0,19.0,-100.00,North,10,4.0,7.0,47,0.00,,,-99.99,,2013-03-23 18:52:00,
2013-03-23 14:03:00,37.0,19.0,-100.00,North,10,4.0,7.0,47,0.00,,,-99.99,,2013-03-23 19:03:00,
2013-03-23 14:12:00,37.0,19.0,-100.00,NNE,25,4.0,6.0,47,0.00,,,-99.99,,2013-03-23 19:12:00,
2013-03-23 14:22:00,37.0,19.0,-100.00,North,0,5.0,6.0,47,0.00,,,-99.99,,2013-03-23 19:22:00,
2013-03-23 14:32:00,37.0,19.0,-100.00,NE,35,7.0,8.0,48,0.00,,,-99.99,,2013-03-23 19:32:00,
2013-03-23 14:42:00,37.0,19.0,-100.00,NE,35,7.0,8.0,48,0.00,,,-99.99,,2013-03-23 19:42:00,
2013-03-23 14:52:00,37.0,20.0,-100.00,NNE,25,8.0,10.0,48,0.00,,,-99.99,,2013-03-23 19:52:00,
2013-03-23 15:02:00,37.0,20.0,-100.00,NNE,25,8.0,10.0,48,0.00,,,-99.99,,2013-03-23 20:02:00,
2013-03-23 15:12:00,39.0,21.0,-100.00,NE,35,7.0,11.0,47,0.00,,,-99.99,,2013-03-23 20:12:00,
2013-03-23 15:22:00,39.0,20.0,-100.00,NE,35,6.0,9.0,45,0.00,,,-99.99,,2013-03-23 20:22:00,
2013-03-23 15:32:00,40.0,20.0,-100.00,NE,55,4.0,9.0,44,0.00,,,-99.99,,2013-03-23 20:32:00,
2013-03-23 15:42:00,40.0,20.0,-100.00,NE,55,4.0,9.0,44,0.00,,,-99.99,,2013-03-23 20:42:00,
2013-03-23 15:52:00,39.0,19.0,-100.00,NNE,15,4.0,9.0,44,0.00,,,-99.99,,2013-03-23 20:52:00,
2013-03-23 16:02:00,39.0,19.0,-100.00,NNE,15,4.0,9.0,44,0.00,,,-99.99,,2013-03-23 21:02:00,
2013-03-23 16:22:00,38.0,19.0,-100.00,NE,35,7.0,9.0,45,0.00,,,-99.99,,2013-03-23 21:22:00,
2013-03-23 16:33:00,38.0,20.0,-100.00,NE,40,6.0,9.0,46,0.00,,,-99.99,,2013-03-23 21:33:00,
2013-03-23 16:43:00,38.0,20.0,-100.00,NE,40,6.0,9.0,46,0.00,,,-99.99,,2013-03-23 21:43:00,
2013-03-23 16:53:00,39.0,20.0,-100.00,NNE,25,7.0,9.0,45,0.00,,,-99.99,,2013-03-23 21:53:00,
2013-03-23 17:03:00,39.0,20.0,-100.00,NNE,25,7.0,9.0,45,0.00,,,-99.99,,2013-03-23 22:03:00,
2013-03-23 17:12:00,39.0,20.0,-100.00,NE,45,6.0,9.0,46,0.00,,,-99.99,,2013-03-23 22:12:00,
2013-03-23 17:23:00,38.0,20.0,-100.00,NNE,30,9.0,11.0,47,0.00,,,-99.99,,2013-03-23 22:23:00,
2013-03-23 17:33:00,38.0,20.0,-100.00,NNE,30,9.0,12.0,48,0.00,,,-99.99,,2013-03-23 22:33:00,
2013-03-23 17:42:00,38.0,20.0,-100.00,NNE,30,9.0,12.0,48,0.00,,,-99.99,,2013-03-23 22:42:00,
2013-03-23 17:52:00,38.0,21.0,-100.00,NE,35,7.0,9.0,49,0.00,,,-99.99,,2013-03-23 22:52:00,
2013-03-23 18:02:00,38.0,21.0,-100.00,NE,35,7.0,9.0,49,0.00,,,-99.99,,2013-03-23 23:02:00,
2013-03-23 18:12:00,38.0,21.0,-100.00,NNE,20,6.0,9.0,49,0.00,,,-99.99,,2013-03-23 23:12:00,
2013-03-23 18:22:00,38.0,21.0,-100.00,NNE,15,9.0,10.0,49,0.00,,,-99.99,,2013-03-23 23:22:00,
2013-03-23 18:33:00,38.0,22.0,-100.00,North,10,6.0,7.0,50,0.00,,,-99.99,,2013-03-23 23:33:00,
2013-03-23 18:42:00,38.0,22.0,-100.00,North,10,6.0,7.0,50,0.00,,,-99.99,,2013-03-23 23:42:00,
2013-03-23 18:52:00,37.0,21.0,-100.00,North,0,5.0,7.0,52,0.00,,,-99.99,,2013-03-23 23:52:00,
2013-03-23 19:02:00,37.0,21.0,-100.00,North,0,5.0,7.0,52,0.00,,,-99.99,,2013-03-24 00:02:00,
2013-03-23 19:12:00,37.0,22.0,-100.00,North,0,4.0,6.0,53,0.00,,,-99.99,,2013-03-24 00:12:00,
2013-03-23 19:22:00,37.0,22.0,-100.00,North,0,4.0,6.0,55,0.00,,,-99.99,,2013-03-24 00:22:00,
2013-03-23 19:32:00,36.0,22.0,-100.00,North,5,4.0,6.0,55,0.00,,,-99.99,,2013-03-24 00:32:00,
2013-03-23 19:42:00,36.0,22.0,-100.00,North,5,4.0,6.0,55,0.00,,,-99.99,,2013-03-24 00:42:00,
2013-03-23 19:52:00,36.0,23.0,-100.00,North,5,7.0,14.0,58,0.00,,,-99.99,,2013-03-24 00:52:00,
2013-03-23 20:02:00,36.0,23.0,-100.00,North,5,7.0,14.0,58,0.00,,,-99.99,,2013-03-24 01:02:00,
2013-03-23 20:12:00,35.0,23.0,-100.00,NNE,15,8.0,9.0,61,0.00,,,-99.99,,2013-03-24 01:12:00,
2013-03-23 20:22:00,35.0,24.0,-100.00,NNE,25,7.0,10.0,63,0.00,,,-99.99,,2013-03-24 01:22:00,
2013-03-23 20:32:00,35.0,25.0,-100.00,North,5,7.0,9.0,67,0.00,,,-99.99,,2013-03-24 01:32:00,
2013-03-23 20:42:00,35.0,25.0,-100.00,North,5,7.0,9.0,67,0.00,,,-99.99,,2013-03-24 01:42:00,
2013-03-23 20:52:00,34.0,27.0,-100.00,North,0,9.0,16.0,75,0.00,,,-99.99,,2013-03-24 01:52:00,
2013-03-23 21:02:00,34.0,27.0,-100.00,North,0,9.0,16.0,75,0.00,,,-99.99,,2013-03-24 02:02:00,
2013-03-23 21:12:00,33.0,28.0,-100.00,North,0,12.0,20.0,81,0.00,,,-99.99,,2013-03-24 02:12:00,
2013-03-23 21:22:00,33.0,29.0,-100.00,North,5,12.0,20.0,86,0.00,,,-99.99,,2013-03-24 02:22:00,
2013-03-23 21:32:00,32.0,30.0,-100.00,North,5,9.0,18.0,92,0.00,,,-99.99,,2013-03-24 02:32:00,
2013-03-23 21:42:00,32.0,30.0,-100.00,North,5,9.0,18.0,92,0.00,,,-99.99,,2013-03-24 02:42:00,
2013-03-23 21:52:00,32.0,31.0,-100.00,North,5,12.0,19.0,95,0.00,,,-99.99,,2013-03-24 02:52:00,
2013-03-23 22:02:00,32.0,31.0,-100.00,North,5,12.0,19.0,95,0.00,,,-99.99,,2013-03-24 03:02:00,
2013-03-23 22:12:00,32.0,31.0,-100.00,North,5,12.0,19.0,96,0.00,,,-99.99,,2013-03-24 03:12:00,
2013-03-23 22:22:00,31.0,31.0,-100.00,North,0,9.0,19.0,97,0.01,,,-99.99,,2013-03-24 03:22:00,
2013-03-23 22:33:00,31.0,31.0,-100.00,North,10,12.0,19.0,98,0.01,,,-99.99,,2013-03-24 03:33:00,
2013-03-23 22:42:00,31.0,31.0,-100.00,North,10,12.0,19.0,98,0.01,,,-99.99,,2013-03-24 03:42:00,
2013-03-23 22:52:00,31.0,31.0,-100.00,North,10,11.0,16.0,99,0.04,,,-99.99,,2013-03-24 03:52:00,
2013-03-23 23:02:00,31.0,31.0,-100.00,North,10,11.0,16.0,99,0.04,,,-99.99,,2013-03-24 04:02:00,
2013-03-23 23:12:00,31.0,31.0,-100.00,North,5,10.0,16.0,99,0.03,,,-99.99,,2013-03-24 04:12:00,
2013-03-23 23:22:00,31.0,31.0,-100.00,North,5,9.0,14.0,99,0.01,,,-99.99,,2013-03-24 04:22:00,
2013-03-23 23:32:00,31.0,31.0,-100.00,North,5,7.0,12.0,99,0.01,,,-99.99,,2013-03-24 04:32:00,
2013-03-23 23:42:00,31.0,31.0,-100.00,North,5,7.0,12.0,99,0.01,,,-99.99,,2013-03-24 04:42:00,
2013-03-23 23:52:00,30.0,30.0,-100.00,North,10,8.0,13.0,99,0.01,,,-99.99,,2013-03-24 04:52:00,